Starlink 34480

operational
NORAD ID: 64427 Int'l Des: 2025-129 Owner: SPXS Country: US Constellation: starlink
LEOCIRCULAR

Starlink 34480について

説明を読み込み中...

リアルタイム位置

3D地球を読み込み中...

次回通過

高度履歴

Altitude vs Time

uPlot chart will show altitude changes over time

軌道要素

1 64427U 25129R 26061.17169745 .00004434 00000-0 37909-3 0 9993
2 64427 70.0002 93.3106 0003464 269.2966 90.7796 14.98338637 40164
Epoch: Mar 2, 2026 • Age: 29 hours

現在のステータス

高度 594.7 km
速度 7.56 km/s
衛星直下点 -68.17°S, 144.04°E
打ち上げ日 Jun 17, 2025
運用期間 0.7 years
タイプ internet

技術仕様

分類 Payload
質量 575.00 kg
乾燥質量 530.00 kg
総質量 575.00 kg
長さ 0.30 m
直径 4.10 m
スパン 29.00 m
形状 Box + pan
製造者 SPXS
バスタイプ Starlink V2MO
フェーズステータス In Orbit
所有者/国 SPXS/US

大規模コンステレーション

Loading constellations...